Time,TemperatureF,DewpointF,PressureIn,WindDirection,WindDirectionDegrees,WindSpeedMPH,WindSpeedGustMPH,Humidity,HourlyPrecipIn,Conditions,Clouds,dailyrainin,SoftwareType,DateUTC
2013-02-16 00:07:00,22.2,14.0,30.25,WNW,288,2.0,7.0,71,0.00,,,0.00,weatherlink.com 1.10,2013-02-16 06:07:00,
2013-02-16 00:22:00,22.0,14.0,30.25,WNW,283,2.0,5.0,71,0.00,,,0.00,weatherlink.com 1.10,2013-02-16 06:22:00,
2013-02-16 00:37:00,21.8,14.0,30.25,West,264,1.0,9.0,72,0.00,,,0.00,weatherlink.com 1.10,2013-02-16 06:37:00,
2013-02-16 00:52:00,21.5,14.0,30.25,NNW,331,3.0,6.0,73,0.00,,,0.00,weatherlink.com 1.10,2013-02-16 06:52:00,
2013-02-16 01:07:00,21.3,14.0,30.24,WNW,300,2.0,7.0,73,0.00,,,0.00,weatherlink.com 1.10,2013-02-16 07:07:00,
2013-02-16 01:22:00,21.1,14.0,30.24,WNW,286,2.0,6.0,74,0.00,,,0.00,weatherlink.com 1.10,2013-02-16 07:22:00,
2013-02-16 01:37:00,20.9,14.0,30.24,WNW,296,2.0,8.0,74,0.00,,,0.00,weatherlink.com 1.10,2013-02-16 07:37:00,
2013-02-16 01:52:00,20.5,14.0,30.24,NW,317,3.0,6.0,75,0.00,,,0.00,weatherlink.com 1.10,2013-02-16 07:52:00,
2013-02-16 02:07:00,20.2,14.0,30.24,West,271,3.0,5.0,77,0.00,,,0.00,weatherlink.com 1.10,2013-02-16 08:07:00,
2013-02-16 02:22:00,19.9,14.0,30.24,WNW,300,0.0,6.0,78,0.00,,,0.00,weatherlink.com 1.10,2013-02-16 08:22:00,
2013-02-16 02:37:00,19.7,13.0,30.24,NW,321,4.0,7.0,75,0.00,,,0.00,weatherlink.com 1.10,2013-02-16 08:37:00,
2013-02-16 02:52:00,19.4,12.0,30.24,WNW,296,3.0,7.0,73,0.00,,,0.00,weatherlink.com 1.10,2013-02-16 08:52:00,
2013-02-16 03:07:00,19.2,12.0,30.24,NW,323,7.0,7.0,73,0.00,,,0.00,weatherlink.com 1.10,2013-02-16 09:07:00,
2013-02-16 03:22:00,18.9,12.0,30.24,NW,309,2.0,8.0,73,0.00,,,0.00,weatherlink.com 1.10,2013-02-16 09:22:00,
2013-02-16 03:38:00,18.4,11.0,30.25,NW,309,4.0,8.0,73,0.00,,,0.00,weatherlink.com 1.10,2013-02-16 09:38:00,
2013-02-16 03:53:00,18.1,10.0,30.25,NW,305,1.0,11.0,71,0.00,,,0.00,weatherlink.com 1.10,2013-02-16 09:53:00,
2013-02-16 04:08:00,17.6,10.0,30.25,NNE,16,4.0,7.0,71,0.00,,,0.00,weatherlink.com 1.10,2013-02-16 10:08:00,
2013-02-16 04:23:00,17.2,10.0,30.25,North,8,4.0,7.0,74,0.00,,,0.00,weatherlink.com 1.10,2013-02-16 10:23:00,
2013-02-16 04:38:00,16.8,10.0,30.26,NW,321,6.0,8.0,75,0.00,,,0.00,weatherlink.com 1.10,2013-02-16 10:38:00,
2013-02-16 04:53:00,16.6,10.0,30.25,WNW,287,2.0,8.0,76,0.00,,,0.00,weatherlink.com 1.10,2013-02-16 10:53:00,
2013-02-16 05:08:00,16.2,10.0,30.25,NNW,330,2.0,6.0,77,0.00,,,0.00,weatherlink.com 1.10,2013-02-16 11:08:00,
2013-02-16 05:23:00,15.7,9.0,30.25,NNW,338,4.0,5.0,76,0.00,,,0.00,weatherlink.com 1.10,2013-02-16 11:23:00,
2013-02-16 05:38:00,15.2,9.0,30.25,North,351,0.0,4.0,75,0.00,,,0.00,weatherlink.com 1.10,2013-02-16 11:38:00,
2013-02-16 06:07:00,14.7,9.0,30.26,NW,321,2.0,6.0,77,0.00,,,0.00,weatherlink.com 1.10,2013-02-16 12:07:00,
2013-02-16 06:23:00,14.5,9.0,30.26,NW,305,1.0,2.0,78,0.00,,,0.00,weatherlink.com 1.10,2013-02-16 12:23:00,
2013-02-16 06:38:00,14.4,8.0,30.26,WNW,295,0.0,4.0,77,0.00,,,0.00,weatherlink.com 1.10,2013-02-16 12:38:00,
2013-02-16 06:54:00,14.0,8.0,30.27,WNW,283,0.0,1.0,78,0.00,,,0.00,weatherlink.com 1.10,2013-02-16 12:54:00,
2013-02-16 07:07:00,14.4,9.0,30.27,WNW,299,0.0,4.0,78,0.00,,,0.00,weatherlink.com 1.10,2013-02-16 13:07:00,
2013-02-16 07:23:00,14.9,9.0,30.27,WNW,284,2.0,2.0,76,0.00,,,0.00,weatherlink.com 1.10,2013-02-16 13:23:00,
2013-02-16 07:39:00,15.3,9.0,30.27,WNW,284,1.0,2.0,77,0.00,,,0.00,weatherlink.com 1.10,2013-02-16 13:39:00,
2013-02-16 07:53:00,15.9,10.0,30.27,WNW,293,0.0,3.0,76,0.00,,,0.00,weatherlink.com 1.10,2013-02-16 13:53:00,
2013-02-16 08:08:00,16.9,10.0,30.28,WSW,255,2.0,5.0,74,0.00,,,0.00,weatherlink.com 1.10,2013-02-16 14:08:00,
2013-02-16 08:24:00,17.8,10.0,30.28,WNW,283,5.0,6.0,70,0.00,,,0.00,weatherlink.com 1.10,2013-02-16 14:24:00,
2013-02-16 08:38:00,18.4,9.0,30.28,West,260,4.0,7.0,68,0.00,,,0.00,weatherlink.com 1.10,2013-02-16 14:38:00,
2013-02-16 08:54:00,18.9,9.0,30.27,NW,309,3.0,8.0,64,0.00,,,0.00,weatherlink.com 1.10,2013-02-16 14:54:00,
2013-02-16 09:08:00,19.4,8.0,30.27,WNW,295,5.0,7.0,62,0.00,,,0.00,weatherlink.com 1.10,2013-02-16 15:08:00,
2013-02-16 09:25:00,20.3,9.0,30.27,NW,309,3.0,7.0,61,0.00,,,0.00,weatherlink.com 1.10,2013-02-16 15:25:00,
2013-02-16 09:40:00,21.0,9.0,30.27,WNW,287,7.0,8.0,59,0.00,,,0.00,weatherlink.com 1.10,2013-02-16 15:40:00,
2013-02-16 09:55:00,21.2,8.0,30.27,West,270,7.0,10.0,58,0.00,,,0.00,weatherlink.com 1.10,2013-02-16 15:55:00,
2013-02-16 10:10:00,21.7,9.0,30.27,WNW,302,6.0,13.0,59,0.00,,,0.00,weatherlink.com 1.10,2013-02-16 16:10:00,
2013-02-16 10:25:00,22.7,10.0,30.27,West,274,3.0,12.0,58,0.00,,,0.00,weatherlink.com 1.10,2013-02-16 16:25:00,
2013-02-16 10:40:00,23.2,9.0,30.27,West,281,7.0,14.0,56,0.00,,,0.00,weatherlink.com 1.10,2013-02-16 16:40:00,
2013-02-16 10:55:00,23.5,11.0,30.27,WNW,284,4.0,12.0,58,0.00,,,0.00,weatherlink.com 1.10,2013-02-16 16:55:00,
2013-02-16 11:10:00,24.2,11.0,30.26,WSW,257,6.0,13.0,58,0.00,,,0.00,weatherlink.com 1.10,2013-02-16 17:10:00,
2013-02-16 11:25:00,25.3,12.0,30.26,NW,319,6.0,12.0,58,0.00,,,0.00,weatherlink.com 1.10,2013-02-16 17:25:00,
2013-02-16 11:39:00,26.1,12.0,30.25,NNW,333,8.0,11.0,56,0.00,,,0.00,weatherlink.com 1.10,2013-02-16 17:39:00,
2013-02-16 11:54:00,26.6,11.0,30.24,NW,324,7.0,13.0,53,0.00,,,0.00,weatherlink.com 1.10,2013-02-16 17:54:00,
2013-02-16 12:10:00,26.8,12.0,30.23,West,272,6.0,11.0,53,0.00,,,0.00,weatherlink.com 1.10,2013-02-16 18:10:00,
2013-02-16 12:26:00,27.7,12.0,30.22,West,278,10.0,10.0,52,0.00,,,0.00,weatherlink.com 1.10,2013-02-16 18:26:00,
2013-02-16 12:40:00,28.0,12.0,30.21,West,261,6.0,10.0,52,0.00,,,0.00,weatherlink.com 1.10,2013-02-16 18:40:00,
2013-02-16 12:56:00,28.6,12.0,30.21,West,281,3.0,14.0,49,0.00,,,0.00,weatherlink.com 1.10,2013-02-16 18:56:00,
2013-02-16 13:10:00,29.3,13.0,30.20,WNW,295,7.0,12.0,51,0.00,,,0.00,weatherlink.com 1.10,2013-02-16 19:10:00,
2013-02-16 13:26:00,29.2,13.0,30.20,NW,309,8.0,16.0,50,0.00,,,0.00,weatherlink.com 1.10,2013-02-16 19:26:00,
2013-02-16 13:41:00,29.7,14.0,30.19,NW,323,4.0,13.0,52,0.00,,,0.00,weatherlink.com 1.10,2013-02-16 19:41:00,
2013-02-16 13:56:00,30.5,12.0,30.18,West,259,3.0,9.0,47,0.00,,,0.00,weatherlink.com 1.10,2013-02-16 19:56:00,
2013-02-16 14:11:00,30.4,13.0,30.18,WNW,293,3.0,16.0,49,0.00,,,0.00,weatherlink.com 1.10,2013-02-16 20:11:00,
2013-02-16 14:26:00,31.3,14.0,30.18,SW,235,2.0,8.0,50,0.00,,,0.00,weatherlink.com 1.10,2013-02-16 20:26:00,
2013-02-16 14:41:00,31.4,15.0,30.18,WNW,297,4.0,12.0,51,0.00,,,0.00,weatherlink.com 1.10,2013-02-16 20:41:00,
2013-02-16 14:56:00,31.3,14.0,30.18,NW,307,4.0,10.0,50,0.00,,,0.00,weatherlink.com 1.10,2013-02-16 20:56:00,
2013-02-16 15:11:00,31.6,14.0,30.18,NW,307,8.0,9.0,48,0.00,,,0.00,weatherlink.com 1.10,2013-02-16 21:11:00,
2013-02-16 15:29:00,31.8,14.0,30.18,NW,306,7.0,9.0,49,0.00,,,0.00,weatherlink.com 1.10,2013-02-16 21:29:00,
2013-02-16 15:42:00,31.2,13.0,30.18,West,276,5.0,14.0,48,0.00,,,0.00,weatherlink.com 1.10,2013-02-16 21:42:00,
2013-02-16 15:56:00,30.7,14.0,30.18,WNW,301,2.0,9.0,50,0.00,,,0.00,weatherlink.com 1.10,2013-02-16 21:56:00,
2013-02-16 16:11:00,30.4,14.0,30.18,WNW,285,3.0,10.0,50,0.00,,,0.00,weatherlink.com 1.10,2013-02-16 22:11:00,
2013-02-16 16:42:00,31.2,14.0,30.18,WNW,301,5.0,9.0,49,0.00,,,0.00,weatherlink.com 1.10,2013-02-16 22:42:00,
2013-02-16 16:58:00,31.0,15.0,30.18,WNW,293,3.0,9.0,51,0.00,,,0.00,weatherlink.com 1.10,2013-02-16 22:58:00,
2013-02-16 17:11:00,30.5,14.0,30.18,West,277,3.0,11.0,51,0.00,,,0.00,weatherlink.com 1.10,2013-02-16 23:11:00,
2013-02-16 17:27:00,29.7,14.0,30.18,NW,306,3.0,7.0,53,0.00,,,0.00,weatherlink.com 1.10,2013-02-16 23:27:00,
2013-02-16 17:43:00,28.9,14.0,30.18,WNW,287,2.0,7.0,55,0.00,,,0.00,weatherlink.com 1.10,2013-02-16 23:43:00,
2013-02-16 17:57:00,28.3,14.0,30.18,West,278,1.0,3.0,56,0.00,,,0.00,weatherlink.com 1.10,2013-02-16 23:57:00,
2013-02-16 18:12:00,27.8,14.0,30.19,WNW,284,1.0,3.0,57,0.00,,,0.00,weatherlink.com 1.10,2013-02-17 00:12:00,
2013-02-16 18:28:00,27.4,14.0,30.19,WNW,284,0.0,1.0,57,0.00,,,0.00,weatherlink.com 1.10,2013-02-17 00:28:00,
2013-02-16 18:42:00,26.4,14.0,30.19,WNW,284,0.0,0.0,59,0.00,,,0.00,weatherlink.com 1.10,2013-02-17 00:42:00,
2013-02-16 18:57:00,25.5,14.0,30.19,WNW,284,0.0,0.0,61,0.00,,,0.00,weatherlink.com 1.10,2013-02-17 00:57:00,
2013-02-16 19:13:00,24.6,14.0,30.20,WNW,284,0.0,0.0,64,0.00,,,0.00,weatherlink.com 1.10,2013-02-17 01:13:00,
2013-02-16 19:27:00,23.8,14.0,30.19,WNW,284,0.0,0.0,65,0.00,,,0.00,weatherlink.com 1.10,2013-02-17 01:27:00,
2013-02-16 19:43:00,23.3,14.0,30.20,WNW,284,0.0,0.0,67,0.00,,,0.00,weatherlink.com 1.10,2013-02-17 01:43:00,
2013-02-16 19:58:00,23.6,14.0,30.20,WNW,284,0.0,0.0,66,0.00,,,0.00,weatherlink.com 1.10,2013-02-17 01:58:00,
2013-02-16 20:14:00,23.5,14.0,30.20,WNW,284,0.0,0.0,67,0.00,,,0.00,weatherlink.com 1.10,2013-02-17 02:14:00,
2013-02-16 20:28:00,24.3,15.0,30.20,North,4,1.0,2.0,67,0.00,,,0.00,weatherlink.com 1.10,2013-02-17 02:28:00,
2013-02-16 20:43:00,24.6,15.0,30.20,NNE,32,1.0,3.0,68,0.00,,,0.00,weatherlink.com 1.10,2013-02-17 02:43:00,
2013-02-16 20:58:00,24.4,16.0,30.20,North,350,2.0,3.0,70,0.00,,,0.00,weatherlink.com 1.10,2013-02-17 02:58:00,
2013-02-16 21:13:00,24.2,16.0,30.21,NE,51,0.0,3.0,71,0.00,,,0.00,weatherlink.com 1.10,2013-02-17 03:13:00,
2013-02-16 21:29:00,23.6,16.0,30.21,North,353,2.0,2.0,73,0.00,,,0.00,weatherlink.com 1.10,2013-02-17 03:29:00,
2013-02-16 21:43:00,23.3,16.0,30.21,NNE,19,1.0,1.0,74,0.00,,,0.00,weatherlink.com 1.10,2013-02-17 03:43:00,
2013-02-16 21:59:00,22.9,16.0,30.21,NE,56,1.0,3.0,75,0.00,,,0.00,weatherlink.com 1.10,2013-02-17 03:59:00,
2013-02-16 22:14:00,22.5,16.0,30.20,ENE,75,2.0,3.0,76,0.00,,,0.00,weatherlink.com 1.10,2013-02-17 04:14:00,
2013-02-16 22:29:00,22.2,16.0,30.20,ENE,70,2.0,2.0,76,0.00,,,0.00,weatherlink.com 1.10,2013-02-17 04:29:00,
2013-02-16 22:44:00,21.8,16.0,30.20,ENE,70,1.0,1.0,77,0.00,,,0.00,weatherlink.com 1.10,2013-02-17 04:44:00,
2013-02-16 23:00:00,21.3,15.0,30.19,ENE,71,0.0,1.0,78,0.00,,,0.00,weatherlink.com 1.10,2013-02-17 05:00:00,
2013-02-16 23:15:00,21.2,16.0,30.19,ENE,77,2.0,2.0,79,0.00,,,0.00,weatherlink.com 1.10,2013-02-17 05:15:00,
2013-02-16 23:29:00,21.0,15.0,30.20,ENE,72,3.0,4.0,78,0.00,,,0.00,weatherlink.com 1.10,2013-02-17 05:29:00,
2013-02-16 23:44:00,21.1,15.0,30.20,ENE,78,2.0,4.0,78,0.00,,,0.00,weatherlink.com 1.10,2013-02-17 05:44:00,
2013-02-16 23:59:00,20.9,15.0,30.20,ENE,73,4.0,4.0,77,0.00,,,0.00,weatherlink.com 1.10,2013-02-17 05:59:00,